COSMOS 1885 (GLONASS)

Satellite information

Favourite Embed

Satellite Type and Status

PAYLOADIN ORBIT

Key statistics

Satellite COSMOS 1885 (GLONASS) at a glance.

Uptime

13811

Days in orbit

Revolutions

≈ 2.1

Per day

Orbit

MEO

Medium Earth Orbit

Inclination

65.8

Latest

Satellite identification and parameters

Extended collection of information and parameters for COSMOS 1885 (GLONASS).

Object identification

Identified? True

Debris? False

Object name: COSMOS 1885 (GLONASS)

International designator: 1987-079C

Object number (NORAD): 18357

Object ID (CCSDS): 18357

Country: COMMONWEALTH OF INDEPENDENT STATES (CIS)

Current information (Y/N): Y

RCS size: LARGE

Orbital parameters

Period: 675.732 minutes

Inclination: 65.7962 deg

SMA: 25508.003 km

Apoapsis: 19189.067 km

Periapsis: 19070.669 km

RAAN: 330.6397 deg

Eccentricy: 0.0023208

Argument of periapsis: 210.0966 deg

Mean anomaly: 153.6831 deg

Mean motion: 2.13102267 rev/day

Mean motion (dot): -0.00000075 rev/day2

B* drag term: 0.0 1/REarth

Two-line elements (TLE)

Creation date: July 5, 2025, 10:26 p.m.

Reference frame: TEME

Reference center: EARTH

Epoch: July 5, 2025, 9:36 p.m. UTC

TLE line 0: 0 COSMOS 1885 (GLONASS)

TLE line 1: 1 18357U 87079C 25186.90033983 -.00000075 00000-0 00000+0 0 9994

TLE line 2: 2 18357 65.7962 330.6397 0023208 210.0966 153.6831 2.13102267277963

Live tracking on map

Real-time ground track for satellite COSMOS 1885 (GLONASS).

In-orbit conjunctions

A list of the most updated potential collisions computed for object COSMOS 1885 (GLONASS).

Target Orbit TCA Probability of collision Miss distance Type
COSMOS 1780 (GLONASS) MEO 2024-09-19 06:51:44 TBA 2061.0 (m) PAYLOAD
COSMOS 1780 (GLONASS) MEO 2024-09-18 19:36:01 TBA 2473.0 (m) PAYLOAD
COSMOS 1780 (GLONASS) MEO 2024-09-01 05:16:41 TBA 3046.0 (m) PAYLOAD
COSMOS 1780 (GLONASS) MEO 2024-08-31 18:00:57 TBA 2757.0 (m) PAYLOAD
COSMOS 1780 (GLONASS) MEO 2024-08-31 06:45:14 TBA 1969.0 (m) PAYLOAD

Associated space launch

GLONASS navigation satellites

COSMOS 1885 (GLONASS) was lifted into orbit during the mission ‘Proton | Uragan 20 to 22’, on board a Proton space rocket.

The launch took place on Sept. 16, 1987, 2:53 a.m. from 200/40.

For more information about the launch, click the button.

Launch to space Proton | Uragan 20 to 22
Proton | Uragan 20 to 22

Agency: N/A

Status: Launch Successful

Launch date: Sept. 16, 1987, 2:53 a.m. UTC

Rocket: Proton

Launch pad: 200/40

Location: Baikonur Cosmodrome, Republic of Kazakhstan

...

Latest news about this satellite

There are no fresh news available about this satellite. Check back as we update our databases every day.


Newsletter sign-up

Weekly statistics, charts and insights to help you stay on top of the space industry.